N7265Y KCOS-

Flight info

Callsign N7265Y
Flight time N/A
Altitude VFR
Route PATTERNWORK
Aircraft C172/L-VGD/C

Departure

Time 2026-04-21 01:41
Airport City of Colorado Springs Municipal Airport (KCOS)

Arrival

Time N/A
Airport -
Time Latitude Longitude Altitude Speed Heading
2026-04-21 01:23 38.80819 -104.72045 6092 ft 0 kts 359°
2026-04-21 01:24 38.80829 -104.72044 6092 ft 0 kts 15°
2026-04-21 01:24 38.80812 -104.72002 6092 ft 12 kts 130°
2026-04-21 01:25 38.80714 -104.71957 6089 ft 20 kts 183°
2026-04-21 01:25 38.80540 -104.71960 6082 ft 28 kts 179°
2026-04-21 01:25 38.80381 -104.71952 6077 ft 15 kts 138°
2026-04-21 01:25 38.80362 -104.71847 6080 ft 10 kts 88°
2026-04-21 01:26 38.80363 -104.71770 6081 ft 8 kts 99°
2026-04-21 01:26 38.80312 -104.71734 6081 ft 13 kts 181°
2026-04-21 01:26 38.80191 -104.71733 6076 ft 20 kts 181°
2026-04-21 01:26 38.80034 -104.71734 6067 ft 21 kts 176°
2026-04-21 01:27 38.79896 -104.71735 6061 ft 18 kts 180°
2026-04-21 01:27 38.79768 -104.71733 6056 ft 19 kts 180°
2026-04-21 01:27 38.79624 -104.71735 6051 ft 21 kts 180°
2026-04-21 01:27 38.79507 -104.71735 6049 ft 12 kts 179°
2026-04-21 01:28 38.79432 -104.71734 6049 ft 8 kts 175°
2026-04-21 01:28 38.79395 -104.71699 6049 ft 6 kts 107°
2026-04-21 01:28 38.79398 -104.71632 6051 ft 8 kts 65°
2026-04-21 01:28 38.79468 -104.71593 6053 ft 14 kts
2026-04-21 01:29 38.79723 -104.71593 6058 ft 60 kts
2026-04-21 01:29 38.80250 -104.71598 6103 ft 83 kts
2026-04-21 01:29 38.80861 -104.71608 6210 ft 89 kts
2026-04-21 01:29 38.81482 -104.71617 6310 ft 93 kts
2026-04-21 01:30 38.82126 -104.71673 6453 ft 91 kts 355°
2026-04-21 01:30 38.82594 -104.72087 6508 ft 97 kts 267°
2026-04-21 01:30 38.82608 -104.72945 6614 ft 92 kts 250°
2026-04-21 01:30 38.82126 -104.73376 6611 ft 85 kts 183°
2026-04-21 01:31 38.81542 -104.73444 6648 ft 90 kts 178°
2026-04-21 01:31 38.80884 -104.73491 6731 ft 94 kts 178°
2026-04-21 01:31 38.80191 -104.73582 6733 ft 104 kts 184°
2026-04-21 01:31 38.79564 -104.73603 6778 ft 81 kts 171°
2026-04-21 01:32 38.79029 -104.73540 6751 ft 73 kts 168°
2026-04-21 01:32 38.78603 -104.73292 6632 ft 66 kts 122°
2026-04-21 01:32 38.78562 -104.72689 6505 ft 65 kts 90°
2026-04-21 01:32 38.78611 -104.72094 6343 ft 66 kts 88°
2026-04-21 01:33 38.78914 -104.71674 6228 ft 71 kts 24°
2026-04-21 01:33 38.79432 -104.71602 6075 ft 75 kts
2026-04-21 01:33 38.79873 -104.71590 6063 ft 61 kts 350°
2026-04-21 01:33 38.80341 -104.71577 6136 ft 70 kts
2026-04-21 01:34 38.80833 -104.71668 6235 ft 72 kts
2026-04-21 01:34 38.81314 -104.71553 6311 ft 70 kts 52°
2026-04-21 01:34 38.81322 -104.70998 6378 ft 66 kts 111°
2026-04-21 01:34 38.80856 -104.70599 6367 ft 86 kts 151°
2026-04-21 01:35 38.80395 -104.70175 6468 ft 79 kts 135°
2026-04-21 01:35 38.80138 -104.69604 6368 ft 74 kts 90°
2026-04-21 01:35 38.80510 -104.69280 6327 ft 74 kts 338°
2026-04-21 01:35 38.80910 -104.69745 6145 ft 74 kts 315°
2026-04-21 01:36 38.81234 -104.70162 6144 ft 69 kts 315°
2026-04-21 01:36 38.81597 -104.70625 6218 ft 76 kts 313°
2026-04-21 01:36 38.82005 -104.71157 6274 ft 90 kts 313°
2026-04-21 01:36 38.82457 -104.71752 6374 ft 95 kts 312°
2026-04-21 01:37 38.82791 -104.72450 6478 ft 88 kts 265°
2026-04-21 01:37 38.82408 -104.72918 6447 ft 73 kts 174°
2026-04-21 01:37 38.82018 -104.72501 6436 ft 79 kts 129°
2026-04-21 01:37 38.81638 -104.71966 6459 ft 83 kts 129°
2026-04-21 01:38 38.81265 -104.71375 6452 ft 89 kts 126°
2026-04-21 01:38 38.80897 -104.70710 6444 ft 86 kts 122°
2026-04-21 01:38 38.80617 -104.70149 6395 ft 68 kts 123°
2026-04-21 01:38 38.80332 -104.69703 6323 ft 60 kts 123°
2026-04-21 01:39 38.80462 -104.69241 6288 ft 67 kts 41°
2026-04-21 01:39 38.80779 -104.69611 6174 ft 76 kts 315°
2026-04-21 01:39 38.81121 -104.70007 6139 ft 61 kts 313°
2026-04-21 01:39 38.81479 -104.70478 6169 ft 83 kts 312°
2026-04-21 01:40 38.81920 -104.71047 6235 ft 96 kts 316°
2026-04-21 01:40 38.82407 -104.71681 6357 ft 101 kts 313°
2026-04-21 01:40 38.82887 -104.72335 6492 ft 101 kts 328°
2026-04-21 01:40 38.83507 -104.72179 6633 ft 88 kts 53°
2026-04-21 01:41 38.83505 -104.71461 6620 ft 98 kts 128°
2026-04-21 01:41 38.83123 -104.70879 6827 ft 72 kts 128°
2026-04-21 01:41 38.82795 -104.70401 6817 ft 69 kts 130°
2026-04-21 01:41 38.82507 -104.69918 6778 ft 70 kts 122°
2026-04-21 01:42 38.82196 -104.69430 6801 ft 70 kts 126°
2026-04-21 01:42 38.81929 -104.68933 6818 ft 70 kts 120°
2026-04-21 01:42 38.81476 -104.68827 6548 ft 82 kts 196°
2026-04-21 01:42 38.80946 -104.68864 6342 ft 71 kts 177°
2026-04-21 01:43 38.80619 -104.69244 6233 ft 79 kts 267°
2026-04-21 01:43 38.80921 -104.69755 6140 ft 63 kts 311°
2026-04-21 01:43 38.81227 -104.70158 6154 ft 72 kts 315°
2026-04-21 01:43 38.81608 -104.70654 6228 ft 84 kts 315°
2026-04-21 01:44 38.82044 -104.71204 6356 ft 90 kts 317°
2026-04-21 01:44 38.82473 -104.71787 6528 ft 88 kts 309°
2026-04-21 01:44 38.82845 -104.72401 6657 ft 90 kts 330°
2026-04-21 01:44 38.83368 -104.72154 6751 ft 82 kts 51°
2026-04-21 01:45 38.83593 -104.71566 6847 ft 83 kts 111°
2026-04-21 01:45 38.83169 -104.70995 6850 ft 83 kts 135°
2026-04-21 01:45 38.82766 -104.70531 6829 ft 76 kts 136°
2026-04-21 01:45 38.82425 -104.70004 6764 ft 77 kts 127°
2026-04-21 01:46 38.82097 -104.69480 6701 ft 69 kts 127°
2026-04-21 01:46 38.81817 -104.69064 6626 ft 60 kts 134°
2026-04-21 01:46 38.81497 -104.68745 6528 ft 61 kts 153°
2026-04-21 01:46 38.81059 -104.68804 6379 ft 74 kts 209°
2026-04-21 01:47 38.80701 -104.69261 6248 ft 72 kts 226°
2026-04-21 01:47 38.80900 -104.69736 6142 ft 68 kts 320°
2026-04-21 01:47 38.81206 -104.70122 6143 ft 69 kts 316°
2026-04-21 01:47 38.81586 -104.70607 6182 ft 89 kts 317°
2026-04-21 01:48 38.82064 -104.71223 6235 ft 102 kts 320°
2026-04-21 01:48 38.82599 -104.71832 6399 ft 102 kts 316°
2026-04-21 01:48 38.83013 -104.72544 6614 ft 97 kts 305°
2026-04-21 01:48 38.83366 -104.73262 6818 ft 94 kts 302°
2026-04-21 01:49 38.83831 -104.73821 6884 ft 103 kts
2026-04-21 01:49 38.84403 -104.73380 6962 ft 99 kts 59°
2026-04-21 01:49 38.84296 -104.72543 6851 ft 112 kts 142°
2026-04-21 01:49 38.83766 -104.72039 6994 ft 81 kts 138°
2026-04-21 01:50 38.83385 -104.71524 6859 ft 80 kts 134°
2026-04-21 01:50 38.83006 -104.71047 6830 ft 69 kts 136°
2026-04-21 01:50 38.82670 -104.70609 6781 ft 70 kts 132°
2026-04-21 01:50 38.82357 -104.70121 6697 ft 70 kts 126°
2026-04-21 01:51 38.82087 -104.69644 6620 ft 62 kts 124°
2026-04-21 01:51 38.81838 -104.69199 6542 ft 60 kts 122°
2026-04-21 01:51 38.81597 -104.68768 6493 ft 57 kts 121°
2026-04-21 01:51 38.81288 -104.68471 6395 ft 68 kts 181°
2026-04-21 01:52 38.80861 -104.68729 6344 ft 71 kts 212°
2026-04-21 01:52 38.80847 -104.69661 6146 ft 69 kts 307°
2026-04-21 01:52 38.81152 -104.70054 6141 ft 63 kts 310°
2026-04-21 01:53 38.81516 -104.70543 6182 ft 87 kts 316°
2026-04-21 01:53 38.81970 -104.71135 6317 ft 94 kts 312°
2026-04-21 01:53 38.82407 -104.71802 6447 ft 101 kts 307°
2026-04-21 01:53 38.82795 -104.72548 6632 ft 99 kts 299°
2026-04-21 01:54 38.83356 -104.72823 6637 ft 93 kts 20°
2026-04-21 01:54 38.83853 -104.72384 6624 ft 96 kts 81°
2026-04-21 01:54 38.83663 -104.71546 6685 ft 100 kts 111°
2026-04-21 01:54 38.83340 -104.70750 6713 ft 107 kts 136°
2026-04-21 01:55 38.82845 -104.70161 6838 ft 84 kts 132°
2026-04-21 01:55 38.82483 -104.69689 6814 ft 73 kts 130°
2026-04-21 01:55 38.82140 -104.69213 6721 ft 70 kts 135°
2026-04-21 01:55 38.81788 -104.68810 6656 ft 68 kts 136°
2026-04-21 01:56 38.81352 -104.68479 6459 ft 86 kts 175°
2026-04-21 01:56 38.80878 -104.68848 6334 ft 73 kts 212°
2026-04-21 01:56 38.80608 -104.69333 6230 ft 71 kts 281°
2026-04-21 01:56 38.80941 -104.69795 6140 ft 70 kts 313°
2026-04-21 01:57 38.81260 -104.70197 6144 ft 68 kts 316°
2026-04-21 01:57 38.81623 -104.70662 6238 ft 76 kts 315°
2026-04-21 01:57 38.82021 -104.71189 6334 ft 87 kts 313°
2026-04-21 01:57 38.82444 -104.71818 6437 ft 96 kts 311°
2026-04-21 01:58 38.82904 -104.72448 6543 ft 101 kts 334°
2026-04-21 01:58 38.83575 -104.72352 6612 ft 90 kts 28°
2026-04-21 01:58 38.83893 -104.71766 6592 ft 84 kts 107°
2026-04-21 01:58 38.83501 -104.71175 6567 ft 89 kts 123°
2026-04-21 01:59 38.83166 -104.70519 6625 ft 87 kts 121°
2026-04-21 01:59 38.82709 -104.69981 6615 ft 92 kts 139°
2026-04-21 01:59 38.82282 -104.69375 6628 ft 78 kts 129°
2026-04-21 01:59 38.81957 -104.68921 6559 ft 63 kts 134°
2026-04-21 02:00 38.81628 -104.68588 6364 ft 75 kts 164°
2026-04-21 02:00 38.81117 -104.68778 6302 ft 74 kts 201°
2026-04-21 02:00 38.80696 -104.69132 6259 ft 64 kts 209°
2026-04-21 02:00 38.80808 -104.69623 6155 ft 71 kts 321°
2026-04-21 02:01 38.81130 -104.70026 6139 ft 58 kts 315°
2026-04-21 02:01 38.81386 -104.70349 6147 ft 45 kts 317°
2026-04-21 02:01 38.81590 -104.70610 6151 ft 38 kts 314°
2026-04-21 02:01 38.81744 -104.70824 6155 ft 23 kts 346°
2026-04-21 02:02 38.81855 -104.70954 6159 ft 25 kts 330°
2026-04-21 02:02 38.82015 -104.71154 6164 ft 34 kts 313°
2026-04-21 02:02 38.82067 -104.71329 6162 ft 19 kts 208°
2026-04-21 02:02 38.81899 -104.71424 6151 ft 34 kts 208°
2026-04-21 02:03 38.81711 -104.71542 6136 ft 28 kts 205°
2026-04-21 02:03 38.81508 -104.71588 6127 ft 31 kts 178°
2026-04-21 02:03 38.81289 -104.71599 6117 ft 26 kts 209°
2026-04-21 02:03 38.81246 -104.71742 6114 ft 11 kts 167°
2026-04-21 02:04 38.81153 -104.71732 6110 ft 18 kts 181°
2026-04-21 02:04 38.80989 -104.71733 6104 ft 26 kts 182°
2026-04-21 02:04 38.80809 -104.71735 6097 ft 25 kts 185°
2026-04-21 02:04 38.80648 -104.71735 6091 ft 16 kts 197°
2026-04-21 02:05 38.80622 -104.71865 6087 ft 15 kts 270°
2026-04-21 02:05 38.80663 -104.71960 6087 ft 13 kts 354°
2026-04-21 02:05 38.80721 -104.72006 6088 ft 11 kts 270°
2026-04-21 02:05 38.80769 -104.72028 6090 ft 0 kts 63°